Address 0x13feb9053ad1070107b68889f4b7ea360355a6d1 4

 
Txn Hash Method
Block
From
To
Value [Txn Fee]
0x437c61e349f34b1ed9985b036b49e8232b3e5f1cc6eb18bf681667c2957417c7Stake217988372021-11-25 21:40:562 days 1 hr ago0x13feb9053ad1070107b68889f4b7ea360355a6d1OUT 0x14d9e4bcc1791aef83170c6876629f7e60c9ba1c0 MATIC0.003592215
0x6ec387bffd6412afa9ef6546832231a3e744c97b943231fc08aef520793f1726Swap Exact ETH F...217988212021-11-25 21:40:242 days 1 hr ago0x13feb9053ad1070107b68889f4b7ea360355a6d1OUT SushiSwap: SushiV2Router0225 MATIC0.00550698
0x85c0a691596e942371cc35425ec7a662cb54f01bd479e1b8b07ec44f6db0bd8eTransfer217987072021-11-25 21:36:282 days 1 hr ago0xfa0b641678f5115ad8a8de5752016bd1359681b9 IN 0x13feb9053ad1070107b68889f4b7ea360355a6d116.79 MATIC0.00126
0xdbf6bc011b78e5947ac1d3944a3e706ec030cc2c44365672f8d2589602bbfd68Stake217985582021-11-25 21:30:162 days 1 hr ago0x13feb9053ad1070107b68889f4b7ea360355a6d1OUT 0x14d9e4bcc1791aef83170c6876629f7e60c9ba1c0 MATIC0.003877797
0x43da97f9708e91d3ffa8e733a104fd49b5c5501d4496dfe0fa5f2cf870507e5fTransfer217985462021-11-25 21:29:282 days 1 hr ago0xfa0b641678f5115ad8a8de5752016bd1359681b9 IN 0x13feb9053ad1070107b68889f4b7ea360355a6d19.92 MATIC0.00126
0xc6fb06adb2258c2cadafbd00ea224b7814cfa9df88725e7463962f890bd736ecApprove217983432021-11-25 21:21:522 days 1 hr ago0x13feb9053ad1070107b68889f4b7ea360355a6d1OUT 0x057e0bd9b797f9eeeb8307b35dbc8c12e534c41e0 MATIC0.001526448
0x777fb514283cad66be8f395312ff2583b4adc0217f1078a18a8e1b100c06167aSwap Exact ETH F...217983262021-11-25 21:21:142 days 1 hr ago0x13feb9053ad1070107b68889f4b7ea360355a6d1OUT SushiSwap: SushiV2Router0225.061080520379787 MATIC0.00688749
0x916ce093d12d3962cc65966c5099466068f82c4d2dfbcacc4831151515e0f382Transfer217982632021-11-25 21:19:042 days 1 hr ago0xfa0b641678f5115ad8a8de5752016bd1359681b9 IN 0x13feb9053ad1070107b68889f4b7ea360355a6d124.92 MATIC0.00126
0x41cf93736b0578ad0914d2486e3300139434d696380afd45c23fce75feee4f71Any Swap Out Und...217598552021-11-24 21:25:183 days 1 hr ago0x13feb9053ad1070107b68889f4b7ea360355a6d1OUT 0x4f3aff3a747fcade12598081e80c6605a8be192f0 MATIC0.00282018
0xb1f7629e3512b14bb6d885464ad7e2edfa07f281fb0c0032556d304f57814507Approve217598002021-11-24 21:23:243 days 1 hr ago0x13feb9053ad1070107b68889f4b7ea360355a6d1OUT USD Coin0 MATIC0.001928718
0x8f00631a66b93549ea101cfdc2abe5299cbfa8a110a8c020218bdbb74ee42c5fSwap Exact Token...217597522021-11-24 21:21:483 days 1 hr ago0x13feb9053ad1070107b68889f4b7ea360355a6d1OUT SushiSwap: SushiV2Router020 MATIC0.004088337
0x095cb64a3480fd46bb87cd233527a371f91b80b5249f137f27e697843d9cd99eApprove217596922021-11-24 21:19:443 days 1 hr ago0x13feb9053ad1070107b68889f4b7ea360355a6d1OUT KlimaDAO: KLIMA Token0 MATIC0.001534599
0x7fa986d4f6609d39210c6e74f085167154ade86c5cd08eafffb605f32888074eUnstake217595782021-11-24 21:15:483 days 1 hr ago0x13feb9053ad1070107b68889f4b7ea360355a6d1OUT 0x25d28a24ceb6f81015bb0b2007d795acac411b4d0 MATIC0.002933535
0xa14b6176873068e15741baa4bc89cb4f5d4bae0e2f23b5148e0f1219d8434aceApprove217594772021-11-24 21:12:183 days 1 hr ago0x13feb9053ad1070107b68889f4b7ea360355a6d1OUT 0xb0c22d8d350c67420f06f48936654f567c73e8c80 MATIC0.001520904
0xfaac38d554c0583788608f3a8b512a4322b1aa6873cbc8cab7fadc73bfd951bfApprove211422132021-11-08 20:26:1919 days 2 hrs ago0x13feb9053ad1070107b68889f4b7ea360355a6d1OUT Aave: amWMATIC Token0 MATIC0.001704252
0x916c6718dbcf3b11a96d3faba40e4de1b95bd5db7f151431f83d0d3634eee152Stake208492112021-11-01 7:26:2126 days 15 hrs ago0x13feb9053ad1070107b68889f4b7ea360355a6d1OUT 0x4d70a031fc76da6a9bc0c922101a05fa95c3a2270 MATIC0.003486714
0xffd788bca1d21afa98e778f9aa28e4709519160af6af5c3b0a88e8ea03931c6dSwap Exact ETH F...208491702021-11-01 7:24:5926 days 15 hrs ago0x13feb9053ad1070107b68889f4b7ea360355a6d1OUT SushiSwap: SushiV2Router0250 MATIC0.006393651
0x88472f5a96bced8a3125ffddfded9a5078f7f5554949683ab13db98826553f78Transfer208491392021-11-01 7:23:5326 days 15 hrs ago0xfa0b641678f5115ad8a8de5752016bd1359681b9 IN 0x13feb9053ad1070107b68889f4b7ea360355a6d149.92 MATIC0.00126
0x8b8588f0a48cfd58f26e8d9416a4ea7e1447c3838e9a1259a67828b3ca6c0eb3Deposit ETH208236402021-10-31 15:09:5027 days 7 hrs ago0x13feb9053ad1070107b68889f4b7ea360355a6d1OUT 0xbeadf48d62acc944a06eeae0a9054a90e5a7dc973 MATIC0.008291052
0xa76715326ca51481752f9baa0ad50f988a790059fe17598933c76f22f3927ca2Borrow ETH208235622021-10-31 15:06:2727 days 8 hrs ago0x13feb9053ad1070107b68889f4b7ea360355a6d1OUT 0xbeadf48d62acc944a06eeae0a9054a90e5a7dc970 MATIC0.011929731
0x29888542e5dfb1f4a3312b86e30944e550121bb60dfd9e34f6225927612b2f39Deposit ETH208235132021-10-31 15:04:4527 days 8 hrs ago0x13feb9053ad1070107b68889f4b7ea360355a6d1OUT 0xbeadf48d62acc944a06eeae0a9054a90e5a7dc975 MATIC0.008855352
0x1d1be71ae00e101df3feacb079dd4e299e57fe88fd2df66326eb5a470ef3286bBorrow ETH208234842021-10-31 15:03:4327 days 8 hrs ago0x13feb9053ad1070107b68889f4b7ea360355a6d1OUT 0xbeadf48d62acc944a06eeae0a9054a90e5a7dc970 MATIC0.0016628172
0xe58beb3a548fa34263df6cde4fed195d073c4146741047b7dbba96ae2c924a5aApprove Delegati...208234562021-10-31 15:02:4727 days 8 hrs ago0x13feb9053ad1070107b68889f4b7ea360355a6d1OUT 0x59e8e9100cbfcbcbadf86b9279fa61526bbb87650 MATIC0.000478019465
0x7b31d9c047c59fdaa455ba7e40aa0d80da24fddec8c9b71f1174cf1c9a99d49fDeposit ETH208232762021-10-31 14:56:3527 days 8 hrs ago0x13feb9053ad1070107b68889f4b7ea360355a6d1OUT 0xbeadf48d62acc944a06eeae0a9054a90e5a7dc9710 MATIC0.009973755
0x5cd56a45df9afe1983518ce18536f3e299f99216af11afb8ebb3a686a8a4022aTransfer208060262021-10-31 4:11:3027 days 18 hrs ago0x13feb9053ad1070107b68889f4b7ea360355a6d1OUT USD Coin0 MATIC0.001037916
[ Download CSV Export 
Latest 5 internal transactions
Parent Txn Hash Block From To Value
0xa76715326ca51481752f9baa0ad50f988a790059fe17598933c76f22f3927ca2208235622021-10-31 15:06:2727 days 8 hrs ago 0xbeadf48d62acc944a06eeae0a9054a90e5a7dc970x13feb9053ad1070107b68889f4b7ea360355a6d12.474999901705628343 MATIC
0x1d1be71ae00e101df3feacb079dd4e299e57fe88fd2df66326eb5a470ef3286b208234842021-10-31 15:03:4327 days 8 hrs ago 0xbeadf48d62acc944a06eeae0a9054a90e5a7dc970x13feb9053ad1070107b68889f4b7ea360355a6d15 MATIC
0x41fe80c972cf733576c942d8061d464898c60fa64a6a78ded11e45981e635fb8207573512021-10-29 23:06:4928 days 23 hrs ago SushiSwap: SushiV2Router020x13feb9053ad1070107b68889f4b7ea360355a6d123.917567441805184302 MATIC
0x02a3082aae4c617f18909fcad42aa867aa01d29fcc5eae7e66329ab17492f4d4207252692021-10-29 2:55:4829 days 20 hrs ago QuickSwap: Router0x13feb9053ad1070107b68889f4b7ea360355a6d196.097637740446764764 MATIC
0x9ac27041fb60fcbdfd02c7c4a06ae5be5cf86ff89472b28480b9aa199c2dbdb3205027282021-10-22 23:12:1835 days 23 hrs ago QuickSwap: Router0x13feb9053ad1070107b68889f4b7ea360355a6d10.075852785760796818 MATIC
[ Download CSV Export 
Loading

Contract Name:
0 MATIC

Compiler Version
0

Optimization Enabled:
0 MATIC

Other Settings:
-NA-
Block Transaction Gas Used Reward
Age Block Fee Address BC Fee Address Voting Power Jailed Incoming
Block Uncle Number Difficulty Gas Used Reward
Loading
Loading
Make sure to use the "Vote Down" button for any spammy posts, and the "Vote Up" for interesting conversations.